Regional Weather Roundup
Issued by NWS

Home | Current Version | Previous Version | Text Only | Print | Product List | Glossary On
Versions: 1 2 3 4 5 6 7 8 9 10 11 12 13 14 15 16 17 18 19 20 21 22 23 24 25 26 27 28 29 30 31 32 33 34 35 36 37 38 39 40 41 42 43 44 45 46 47 48 49 50
000
ASCA44 KEWX 010720
RWRMX

LATIN AMERICA AND CARIBBEAN REGIONAL WEATHER ROUNDUP
NATIONAL WEATHER SERVICE AUSTIN/SAN ANTONIO TX
100 AM CST SUN MAR 01 2015

NOTE: "FAIR" INDICATED FEW OR NO CLOUDS BELOW 12,000 FEET WITH NO
SIGNIFICANT WEATHER AND/OR OBSTRUCTIONS TO VISIBILITY.

BAJA CALIFORNIA

CITY           SKY/WX    TMP DP  RH WIND       PRES   REMARKS
LA PAZ           N/A    N/A N/A N/A MISG        N/A
TIJUANA        SHOWER    55  46  71 SE6       29.96R

NORTHWESTERN MEXICO

CITY           SKY/WX    TMP DP  RH WIND       PRES   REMARKS
HERMOSILLO     CLEAR     63  57  82 N3        29.98

NORTHEASTERN MEXICO

CITY           SKY/WX    TMP DP  RH WIND       PRES   REMARKS
MONTERREY      CLOUDY    46  45  93 E3        30.16F FOG
REYNOSA        CLOUDY    45  43  93 NW9       30.17  FOG     WCI  40
TORREON        PTCLDY    59  39  47 CALM      30.07R
CD. VICTORIA   CLOUDY    54  46  76 NW5       30.17

WESTERN MEXICO

CITY           SKY/WX    TMP DP  RH WIND       PRES   REMARKS
DEL BAJIO      CLEAR     52  32  46 CALM      30.33S
GUADALAJARA    CLEAR     55  32  41 S2        30.22
MAZATLAN       CLEAR     57  54  88 N8        30.00S
P. VALLARTA    PTCLDY    66  64  94 CALM      29.99S
ZACATECAS      CLEAR     48  18  29 S12       30.28  WCI  43

CENTRAL MEXICO

CITY           SKY/WX    TMP DP  RH WIND       PRES   REMARKS
MEXICO CITY    CLEAR     63  39  42 NW6       30.34S
MORELIA        CLEAR     52  37  58 CALM      30.26
QUERETARO      CLEAR     54  39  58 CALM      30.32S
S. LUIS POTOSI CLEAR     50  41  71 CALM      30.28S
TOLUCA         CLEAR     45  32  61 E3        30.41F

SOUTHERN MEXICO

CITY           SKY/WX    TMP DP  RH WIND       PRES   REMARKS
ACAPULCO       CLEAR     73  66  78 NE2       29.96F
VERACRUZ       CLOUDY    66  61  82 N3        30.09F

YUCATAN PENINSULA

CITY           SKY/WX    TMP DP  RH WIND       PRES   REMARKS
CANCUN         CLEAR     77  72  83 NE6       30.14F
CHETUMAL       CLEAR     79  73  83 CALM      30.09S
COZUMEL        CLEAR     68  68 100 CALM      30.13F
MERIDA         CLEAR     73  70  88 E8        30.12S
TAPACHULA      CLEAR     79  75  89 CALM      29.95F

CENTRAL AMERICA

CITY           SKY/WX    TMP DP  RH WIND       PRES   REMARKS

CARIBBEAN

CITY           SKY/WX    TMP DP  RH WIND       PRES   REMARKS
ARUBA          PTCLDY    77  73  88 NE16      29.94S
CURACAO        PTCLDY    77  72  83 SE10      29.97S
KINGSTON       PTCLDY    77  68  73 N6        30.03S
NASSAU         MOCLDY    72  68  88 E7        30.26S VSB 5/8
SAN JUAN       PTCLDY    73  68  83 NE18G26   30.10F
SANTO DOMINGO  LGT RAIN  72  70  94 NE7       30.09F
ST. MAARTEN    PTCLDY    77  66  69 E16       30.06S

$$



USA.gov is the U.S. government's official web portal to all federal, state and local government web resources and services.